Tracking 29892 objects as of 21-Nov-2024
HD Live streaming from Space Station
objects crossing your sky now

STARLINK-6220

Track STARLINK-6220 now!
10-day predictions
STARLINK-6220 is classified as:


NORAD ID: 56482
Int'l Code: 2023-064AL
Perigee: 577.3 km
Apogee: 581.0 km
Inclination: 70.0 °
Period: 96.1 minutes
Semi major axis: 6950 km
RCS: Unknown
Launch date: May 10, 2023
Source: United States (US)
Launch site: AIR FORCE WESTERN TEST RANGE (AFWTR)
Your satellite tracking list
Your tracking list is empty




NASA's NSSDC Master Catalog

Two Line Element Set (TLE):
1 56482U 23064AL  24325.18420375  .00001666  00000-0  14737-3 0  9990
2 56482  69.9992 240.8193 0002710 265.7852  94.2997 14.98343798 84663
Source of the keplerian elements: AFSPC